Wind_Speed
48 48 47 46 44 44 45 44 43 39 38 34 33 33 33 33 32 32 32 33 32 32 32 33 33 33 33 33 34 33 34 34 35 36 37 38 39 41 42 43 45 46 46 47
49 48 48 47 46 44 43 42 41 40 36 32 33 34 34 33 32 31 31 32 33 33 34 34 33 33 33 33 33 34 35 35 36 37 38 39 41 42 43 44 45 46 46 47
48 47 48 49 45 43 42 40 39 38 32 32 33 33 33 33 32 31 31 32 32 33 33 33 33 33 33 34 34 35 35 36 37 38 39 41 42 43 44 45 46 46 47 47
48 48 50 45 41 41 41 39 38 37 34 33 32 32 33 33 32 32 31 32 32 32 33 32 33 33 34 35 35 36 36 37 38 39 41 43 43 44 45 45 46 46 47 48
49 50 49 45 41 38 38 38 36 35 33 32 33 33 32 31 31 31 31 31 31 32 32 32 33 34 35 36 36 37 38 38 39 41 43 43 44 44 45 45 46 47 48 49
48 49 49 43 39 37 37 37 34 33 32 32 33 33 29 30 31 31 31 32 32 32 31 32 33 34 35 36 37 37 38 40 41 42 43 43 43 44 44 45 46 47 48 49
48 47 46 44 40 38 37 33 31 32 32 32 32 30 29 30 31 31 31 31 31 32 32 33 34 34 35 35 36 37 39 40 41 42 43 43 43 43 45 46 47 48 48 50
48 49 46 43 41 38 34 33 31 30 31 31 31 31 30 30 30 30 30 31 31 31 32 32 33 34 34 35 36 38 39 40 41 41 42 42 43 44 45 46 47 48 49 51
47 45 42 40 38 36 35 33 32 31 31 31 31 31 31 30 30 30 29 30 30 31 31 32 33 33 34 35 36 37 38 39 40 41 41 42 43 44 45 46 47 49 50 52
45 44 42 40 38 37 35 33 32 31 30 30 31 30 30 30 30 30 30 30 30 31 32 32 33 33 34 35 36 37 37 38 39 40 41 42 43 44 45 47 49 50 52 54
43 41 40 40 38 36 35 34 32 31 30 30 30 30 30 30 30 30 30 30 31 31 32 33 33 34 35 35 36 36 37 38 39 40 41 42 43 45 47 48 50 52 54 56
41 39 39 38 37 37 36 34 33 32 31 30 30 30 30 30 30 30 31 31 31 32 32 33 33 34 34 35 36 37 38 39 39 40 41 43 44 46 47 49 51 54 56 59
41 40 40 38 38 37 35 34 33 32 31 30 30 30 30 30 30 30 31 31 31 32 32 33 33 34 34 35 36 37 38 39 40 41 43 44 46 47 49 51 53 56 58 61
40 41 41 39 37 36 36 35 34 33 32 31 30 30 30 30 30 30 31 31 32 32 33 33 34 34 35 36 37 38 39 40 41 43 44 45 47 49 52 54 56 58 61 63
39 40 40 40 39 38 37 36 35 34 33 32 31 31 30 30 31 31 32 32 32 33 33 34 34 35 36 36 37 38 40 41 42 44 45 48 50 52 55 57 59 61 62 63
39 38 38 38 38 37 36 35 35 34 33 32 32 32 32 32 32 32 32 32 32 33 34 34 35 36 37 37 38 39 41 42 44 46 48 50 53 55 58 60 61 62 63 64
38 36 35 35 35 34 34 33 33 33 33 32 32 32 32 32 32 31 32 32 33 34 35 36 37 37 38 39 40 41 43 44 46 49 51 53 56 58 60 61 62 63 64 66
37 36 35 35 34 34 34 34 33 33 33 32 32 32 32 32 32 32 32 33 34 35 36 37 37 38 39 40 41 43 45 47 49 52 54 56 58 60 61 61 62 64 66 66
35 35 34 33 33 33 34 33 33 33 32 32 32 32 32 33 33 33 34 34 35 36 36 37 38 39 40 41 43 45 47 49 52 54 57 59 60 60 61 62 64 66 66 67
32 32 32 33 33 32 32 33 33 32 32 32 32 32 33 33 33 34 34 35 36 36 37 38 39 40 41 43 45 47 50 52 54 56 58 60 60 61 62 64 65 67 67 67
32 31 31 31 32 31 30 30 31 31 31 32 32 32 33 33 33 34 34 35 36 37 37 39 40 41 43 45 48 50 53 55 57 58 59 60 61 62 64 65 66 67 66 65
31 31 30 30 30 30 30 30 30 30 31 31 32 32 33 33 34 34 35 36 37 37 38 39 41 43 45 48 50 53 55 56 58 59 60 61 62 63 64 65 65 64 63 61
30 30 29 28 28 29 29 30 30 30 31 31 32 33 33 34 34 35 36 37 38 38 40 41 43 46 48 51 53 55 56 58 59 61 61 62 63 64 64 64 62 61 59 58
28 28 28 28 29 29 29 30 30 30 31 31 32 33 33 34 35 35 36 37 38 40 42 44 47 49 52 53 55 56 58 59 61 61 61 62 63 63 62 61 59 58 56 55
27 27 27 28 28 29 29 30 30 30 31 32 32 33 33 34 34 35 37 38 40 42 44 47 49 52 53 55 56 58 60 61 61 60 61 61 61 60 59 58 57 54 53 51
25 25 26 26 27 28 28 29 29 30 31 31 32 33 33 34 36 37 38 40 42 44 47 49 51 53 54 56 58 59 60 60 60 60 60 60 59 57 56 54 52 51 50 49
23 23 24 25 26 27 27 28 29 30 30 31 32 33 34 35 37 38 40 42 44 47 49 51 52 54 56 57 58 59 58 58 59 59 58 57 55 54 52 51 50 49 48 46
Wind_Direction
232 235 237 237 238 239 242 245 248 251 252 252 255 255 254 254 254 255 255 256 257 258 258 258 259 260 261 263 265 266 268 270 272 274 276 279 281 283 285 287 289 290 292 293
232 233 236 236 236 238 240 243 246 248 249 251 253 253 253 255 256 257 256 256 257 258 259 259 259 261 262 263 264 266 268 270 272 276 278 280 283 284 286 287 289 290 292 293
232 233 236 236 235 238 241 243 246 248 250 251 251 252 254 255 257 258 257 257 258 259 260 259 260 261 263 264 266 268 269 271 274 277 279 281 283 285 286 287 289 291 292 293
231 233 236 235 235 238 242 243 246 248 249 251 252 252 253 255 257 258 257 257 257 258 259 260 261 262 264 267 269 269 271 273 275 277 279 282 284 285 286 287 289 291 292 293
231 234 236 235 236 239 242 243 244 247 247 249 251 252 254 257 258 258 257 256 257 259 260 261 262 264 266 268 269 270 272 274 275 278 280 282 283 284 286 288 290 291 292 293
230 234 235 234 236 238 240 241 241 245 247 249 252 253 255 256 257 258 258 259 260 260 261 262 263 266 267 269 270 271 273 274 277 279 281 282 283 285 286 288 289 291 292 293
230 233 234 234 235 237 240 242 242 244 247 249 251 254 254 254 256 258 260 261 261 261 262 263 265 267 268 270 271 273 274 276 278 280 281 282 284 285 287 288 290 291 292 293
230 232 233 234 236 237 240 241 242 243 245 248 251 253 254 255 257 259 260 261 261 262 263 265 267 268 270 271 273 275 277 278 279 280 282 283 285 286 288 289 290 291 292 294
230 232 234 235 237 237 238 240 243 245 246 249 251 253 255 256 257 258 260 260 261 263 266 267 268 270 272 274 276 277 279 279 280 281 283 284 286 287 288 289 291 292 293 295
227 228 230 233 236 238 239 240 242 245 247 249 251 253 255 256 257 258 259 261 263 265 267 269 270 272 274 276 277 279 280 281 282 283 285 286 287 288 289 291 292 293 294 296
226 228 229 231 234 237 238 239 240 243 245 248 251 254 255 256 257 259 260 263 265 267 269 270 271 273 275 277 279 280 282 283 284 285 286 287 288 290 291 292 293 295 296 297
225 227 230 231 231 234 237 238 240 243 246 249 252 254 256 258 259 261 264 266 267 268 269 271 273 275 276 278 280 282 283 285 285 286 288 289 290 291 293 294 295 297 298 299
226 227 229 230 231 234 237 239 241 244 247 250 254 256 258 259 261 264 266 267 268 269 271 273 275 276 278 280 282 283 284 285 287 288 289 291 292 293 295 296 297 298 299 300
228 228 228 230 232 234 237 240 242 244 248 251 254 256 258 260 262 264 265 266 268 271 273 275 276 278 279 281 283 284 286 287 289 290 291 293 294 295 297 298 299 299 300 301
228 230 231 233 235 237 239 241 243 246 250 252 253 255 258 261 263 264 266 267 270 272 274 276 277 279 281 282 284 286 287 289 291 292 293 295 296 297 298 299 300 301 301 301
227 230 232 234 236 238 240 242 244 247 249 251 253 256 259 261 263 265 267 269 271 273 274 277 279 280 282 284 285 287 289 291 292 294 295 296 298 299 300 300 301 302 302 302
227 229 230 233 235 237 238 240 243 246 248 251 254 256 258 261 263 265 267 269 271 273 276 278 280 281 283 285 287 289 291 293 294 295 297 298 299 300 301 302 302 303 303 304
226 228 230 232 234 236 238 240 243 245 248 251 253 255 257 260 262 265 267 270 272 275 277 278 280 282 284 286 288 290 292 294 296 297 299 300 301 301 302 302 303 303 304 304
226 228 230 232 235 237 239 241 244 246 249 251 254 256 259 261 264 266 269 271 273 276 277 279 281 283 286 288 290 292 294 296 297 299 300 301 302 302 302 303 304 304 304 304
225 228 230 232 234 237 240 243 245 247 249 252 255 258 260 263 265 268 270 272 274 276 278 280 283 285 288 291 293 295 296 298 299 300 301 302 302 302 303 304 304 305 305 305
226 228 230 232 235 237 241 243 245 248 251 254 256 258 261 263 267 269 271 273 276 278 280 283 286 288 291 293 295 297 298 299 300 301 301 302 302 303 304 304 305 305 305 305
226 228 231 233 236 238 240 243 245 248 251 253 256 259 262 265 268 270 272 275 277 280 283 285 288 291 293 295 297 298 299 300 301 301 302 302 303 303 304 305 306 306 306 306
225 227 229 232 236 238 241 244 247 249 252 255 258 261 264 267 269 272 274 277 279 282 284 287 290 293 295 297 298 299 300 301 302 302 302 302 303 304 305 306 306 306 306 306
224 228 230 233 235 238 241 245 248 251 254 258 261 264 266 268 271 274 276 279 281 284 287 289 292 295 297 298 299 300 301 302 302 302 302 303 304 305 305 306 306 306 306 306
223 227 231 234 236 239 242 246 250 254 257 261 263 266 268 271 273 276 279 282 285 287 290 292 295 297 298 299 300 301 301 302 303 302 303 304 304 305 305 306 306 306 306 306
225 229 233 236 239 241 245 249 252 256 259 262 265 268 271 274 277 279 282 285 287 290 292 294 296 298 299 299 300 301 302 303 303 303 303 304 305 305 306 306 305 305 306 306
228 232 236 239 242 245 248 252 255 258 262 265 268 271 274 277 280 283 285 288 290 292 294 296 297 298 299 300 301 302 303 303 304 304 304 304 305 305 305 305 305 305 305 305
Height
5622 5627 5632 5637 5642 5645 5648 5653 5657 5662 5665 5669 5670 5671 5672 5673 5675 5677 5679 5680 5682 5683 5684 5685 5685 5686 5687 5687 5687 5687 5687 5687 5686 5685 5683 5682 5680 5677 5675 5672 5669 5665 5662 5658
5610 5616 5620 5624 5630 5634 5639 5644 5648 5651 5655 5660 5660 5661 5662 5664 5666 5668 5670 5671 5672 5674 5675 5676 5676 5677 5678 5678 5678 5678 5678 5677 5676 5675 5673 5671 5669 5667 5664 5661 5657 5654 5650 5646
5601 5606 5607 5612 5622 5626 5631 5635 5639 5642 5649 5650 5650 5652 5653 5655 5657 5659 5661 5662 5663 5665 5666 5666 5667 5668 5668 5669 5669 5668 5668 5667 5666 5665 5663 5661 5658 5656 5653 5649 5646 5642 5638 5634
5589 5594 5595 5609 5614 5618 5621 5626 5630 5634 5637 5639 5641 5643 5644 5646 5648 5650 5652 5653 5654 5655 5656 5657 5658 5658 5659 5659 5659 5659 5658 5657 5656 5654 5652 5650 5647 5644 5641 5638 5634 5630 5626 5622
5578 5582 5588 5598 5605 5610 5613 5617 5622 5624 5627 5630 5631 5632 5635 5638 5639 5641 5642 5644 5645 5646 5647 5648 5648 5649 5649 5649 5649 5648 5648 5646 5645 5643 5641 5638 5636 5633 5629 5626 5622 5618 5614 5609
5568 5573 5579 5592 5597 5600 5603 5607 5613 5615 5618 5620 5621 5624 5629 5629 5630 5632 5633 5635 5636 5637 5638 5638 5639 5639 5639 5639 5638 5638 5637 5635 5634 5632 5629 5627 5624 5621 5618 5614 5610 5606 5601 5597
5558 5563 5571 5581 5586 5590 5595 5603 5605 5606 5609 5611 5613 5617 5619 5620 5621 5623 5624 5626 5627 5628 5628 5629 5629 5629 5629 5628 5628 5627 5625 5624 5622 5620 5618 5615 5612 5609 5606 5602 5598 5594 5589 5584
5548 5554 5565 5572 5577 5582 5588 5592 5595 5597 5599 5602 5605 5607 5609 5611 5612 5614 5615 5616 5617 5618 5619 5619 5619 5619 5619 5618 5617 5616 5614 5613 5611 5608 5606 5603 5600 5597 5593 5589 5585 5581 5576 5571
5541 5551 5558 5563 5568 5573 5577 5582 5585 5588 5591 5594 5596 5598 5600 5602 5603 5605 5606 5607 5608 5609 5609 5609 5609 5609 5608 5607 5606 5605 5603 5601 5599 5597 5594 5591 5588 5584 5580 5576 5572 5567 5563 5557
5531 5539 5546 5552 5557 5562 5568 5572 5575 5579 5582 5585 5587 5589 5591 5593 5594 5596 5597 5598 5599 5599 5599 5599 5599 5598 5598 5597 5595 5594 5592 5590 5588 5585 5582 5579 5576 5572 5568 5563 5559 5554 5549 5543
5522 5530 5536 5541 5547 5553 5558 5562 5566 5570 5573 5575 5578 5580 5582 5584 5585 5587 5588 5589 5589 5589 5589 5589 5588 5588 5587 5586 5584 5583 5581 5578 5576 5573 5570 5567 5563 5559 5555 5550 5545 5540 5534 5528
5515 5523 5528 5534 5538 5543 5548 5552 5557 5560 5563 5566 5569 5571 5573 5574 5576 5577 5578 5579 5579 5579 5579 5579 5578 5577 5576 5575 5573 5571 5569 5566 5564 5561 5558 5554 5550 5546 5541 5537 5531 5525 5519 5512
5506 5512 5517 5523 5528 5533 5538 5543 5547 5551 5554 5557 5560 5562 5564 5565 5567 5568 5568 5569 5569 5569 5569 5568 5568 5566 5565 5564 5562 5560 5557 5555 5552 5549 5545 5541 5537 5533 5528 5523 5517 5511 5504 5496
5497 5503 5508 5514 5519 5524 5529 5534 5538 5542 5545 5548 5550 5552 5554 5556 5557 5558 5558 5559 5559 5559 5558 5558 5557 5556 5554 5552 5550 5548 5545 5543 5539 5536 5532 5528 5523 5519 5514 5508 5503 5496 5488 5480
5489 5495 5501 5506 5511 5515 5520 5525 5529 5532 5536 5538 5541 5543 5545 5546 5547 5548 5548 5549 5549 5548 5548 5547 5546 5544 5543 5541 5539 5536 5533 5530 5527 5523 5519 5514 5509 5504 5498 5492 5486 5479 5472 5464
5480 5485 5491 5497 5502 5507 5511 5516 5520 5523 5526 5529 5531 5533 5535 5536 5537 5538 5538 5538 5538 5538 5537 5536 5535 5533 5531 5529 5527 5524 5521 5517 5514 5509 5505 5500 5494 5489 5482 5476 5469 5461 5454 5446
5472 5478 5483 5489 5493 5498 5502 5507 5510 5514 5516 5519 5521 5523 5525 5526 5527 5527 5528 5528 5527 5527 5526 5525 5523 5522 5520 5517 5515 5512 5508 5504 5500 5495 5490 5485 5479 5472 5466 5458 5451 5444 5436 5428
5465 5470 5475 5480 5485 5489 5493 5497 5501 5504 5507 5509 5511 5513 5515 5516 5517 5517 5517 5517 5517 5516 5515 5513 5512 5510 5508 5505 5502 5499 5495 5491 5486 5481 5475 5469 5463 5456 5449 5441 5434 5426 5419 5410
5457 5462 5467 5472 5477 5481 5485 5489 5492 5495 5497 5500 5502 5503 5505 5506 5506 5507 5507 5506 5506 5505 5503 5502 5500 5498 5495 5492 5489 5485 5481 5477 5472 5466 5460 5453 5446 5439 5432 5424 5417 5409 5400 5392
5449 5454 5459 5464 5468 5473 5476 5479 5483 5486 5488 5490 5492 5493 5495 5495 5496 5496 5496 5495 5494 5493 5492 5490 5488 5486 5483 5480 5476 5472 5467 5462 5456 5450 5444 5437 5430 5423 5415 5407 5399 5391 5382 5374
5442 5447 5452 5456 5460 5464 5468 5471 5474 5476 5479 5481 5482 5484 5485 5485 5485 5485 5485 5484 5483 5482 5480 5478 5476 5473 5470 5466 5462 5457 5452 5446 5440 5434 5427 5420 5413 5406 5398 5390 5381 5373 5364 5356
5435 5440 5444 5449 5452 5456 5459 5462 5465 5467 5469 5471 5473 5474 5474 5475 5475 5474 5474 5473 5472 5470 5468 5466 5463 5460 5456 5452 5448 5442 5437 5430 5424 5418 5411 5404 5396 5389 5381 5372 5364 5355 5347 5339
5428 5433 5437 5441 5445 5448 5451 5454 5456 5458 5460 5462 5463 5464 5464 5464 5464 5464 5463 5462 5460 5458 5456 5453 5450 5446 5442 5438 5432 5427 5421 5414 5408 5401 5394 5386 5379 5371 5363 5355 5347 5339 5331 5324
5422 5426 5430 5434 5437 5440 5443 5445 5448 5450 5451 5452 5453 5454 5454 5454 5453 5452 5451 5450 5448 5446 5443 5440 5436 5432 5427 5422 5417 5411 5405 5398 5391 5384 5376 5369 5361 5354 5346 5338 5330 5323 5316 5309
5416 5420 5423 5427 5430 5432 5435 5437 5439 5440 5442 5443 5443 5443 5443 5443 5442 5441 5440 5438 5436 5433 5430 5426 5422 5417 5412 5407 5401 5395 5388 5381 5374 5366 5359 5352 5344 5337 5329 5322 5314 5308 5301 5294
5410 5413 5417 5419 5422 5424 5427 5428 5430 5431 5432 5433 5433 5433 5432 5432 5431 5429 5428 5425 5423 5420 5416 5412 5407 5402 5397 5391 5385 5378 5371 5364 5357 5349 5342 5335 5328 5321 5314 5306 5300 5293 5287 5281
5404 5407 5409 5412 5414 5416 5418 5420 5421 5422 5423 5423 5423 5422 5422 5421 5419 5417 5415 5412 5409 5406 5402 5397 5392 5387 5381 5375 5368 5361 5354 5347 5340 5333 5326 5319 5312 5305 5299 5292 5286 5279 5273 5267